User: anonymous   Login
Location: NJAA Observatory
(40.6819°N, 74.8979°W)
Time: 20:21:59
(UTC-04:00)
Language:

Cosmos 2237 Rocket - Orbit

View from above orbital plane
View from above orbital plane
View from above satellite
View from above satellite

Ground track
Ground track

The orbit data is extracted from the following two-line orbital elements,

1 22566U 93016B   15113.84298611  .00000340  00000-0  20054-3 0  9991
2 22566 071.0067 275.3343 0012336 251.0910 108.8875 14.14896301140182
Epoch (UTC): 23 April 2015 20:13:54
Eccentricity: 0.0012336
inclination: 71.0067°
perigee height: 834 km
apogee height: 851 km
right ascension of ascending node: 275.3343°
argument of perigee: 251.0910°
revolutions per day: 14.14896301
mean anomaly at epoch: 108.8875°
orbit number at epoch: 14018

The dashed part of the orbit path shows where the satellite is in the earth's shadow,  

DLR